Hundvaag 1 weather for Oct 1987
Month no. 4
Obs.
Da.
Temp. Dew Point Precip. Wind
Speed
Wind gusts Cloud cover Press. Humidity Wind dir. Sunny OPT
01.10.1987     0,0             1  
02.10.1987     0,0             1  
03.10.1987     0,0             1  
04.10.1987     0,0             1  
05.10.1987     0,0             1  
06.10.1987     15,0                
07.10.1987     23,3             1  
08.10.1987     8,0                
09.10.1987     32,6             1  
10.10.1987     18,5             1  
11.10.1987     0,1                
12.10.1987     3,4                
13.10.1987     3,1             1  
14.10.1987     4,9             1  
15.10.1987     12,0                
16.10.1987     7,2             1  
17.10.1987     26,3             1  
18.10.1987     0,7             1  
19.10.1987     0,0             1  
20.10.1987     0,0             1  
21.10.1987     0,0             1  
22.10.1987     0,0             1  
23.10.1987     13,7                
24.10.1987     10,5             1  
25.10.1987     3,1             1  
26.10.1987     0,9                
27.10.1987     0,0                
28.10.1987     9,0             1  
29.10.1987     2,2             1  
30.10.1987     0,0                
31.10.1987     16,9                
Avrg/Sum     211,4             21